Voltar ao catálogo

STARLINK-31882

AtivoComunicaçõesVLEO
NORAD 59855·PAYLOAD·🇺🇸 United States

Lançado May 23, 2024 de Cape Canaveral Space Force Station

Loading…

Próximas Passagens (próximas 24 horas)

TLE

AtualizadoSource: CelesTrak SupGP

Época: Sep 15, 2026, 02:14 UTC

1 59855C 24097W   26258.09354167  .00009423  00000+0  34123-3 0  2583
2 59855  42.9996 277.7334 0001297 262.0777 114.0810 15.27579427    11

Acompanhe STARLINK-31882 em tempo real com AllMySat

Download on the App Store